Simultaneous Nadir Overpasses (SNOs) Predictions

Prediction of SNOs between GOES-16 and NOAA-19 Satellite Orbit:

Table of predicted SNOs for the next 14.0 days since TLE Epoch: 8/20/2022
Index Date Time (GOES-16) GOES-16 Lat,Lon NOAA-19 Lat,Lon Distance(km) Time Diff (sec)
1 08/21/2022 13:09:08 -0.01, -75.21 0.69, -78.31 353.65 80
2 08/22/2022 12:57:16 -0.01, -75.21 0.06, -75.41 23.29 80
3 08/23/2022 12:45:25 -0.02, -75.22 -0.63, -72.52 307.58 80
4 08/26/2022 01:08:40 0.02, -75.22 -0.51, -77.40 249.02 80
5 08/27/2022 00:54:09 0.01, -75.23 0.20, -74.52 82.65 80
6 08/28/2022 00:44:56 0.01, -75.25 0.86, -71.62 414.36 80
7 08/29/2022 13:17:18 -0.01, -75.28 0.91, -79.37 466.29 80
8 08/30/2022 13:05:25 -0.01, -75.30 0.27, -76.47 134.37 80
9 08/31/2022 12:50:54 -0.01, -75.31 -0.43, -73.58 197.67 80
10 09/03/2022 01:14:07 0.01, -75.34 -0.74, -78.45 355.66 80
